Theta_e
302 298 295 295 298 298 299 299 300 298 297 296 296 295 295 295 296 296 295 296 295 295 296 297 297 298 299 297 294 293 294 294 293 293 292 292 292 292 292 292 292 292 291 293 293 293 293 294 294 295 296 297 297 296 297 298 298 298 299 301 301 303 305 305 304 305 303 301 300 299 297 295 294 294 294 294 294 294 294 295 296 297 298 299 300 301
299 296 297 300 300 300 300 300 298 296 296 296 295 294 294 295 294 297 295 294 296 294 295 294 294 296 298 295 293 293 293 293 293 292 292 291 291 291 291 291 291 291 293 293 293 293 293 294 294 295 295 295 296 295 295 295 296 298 299 300 301 302 303 304 303 302 301 300 299 298 296 295 295 294 294 293 293 293 294 295 295 296 296 297 298 298
295 294 299 300 298 297 296 297 296 297 295 295 294 295 293 295 296 296 294 294 295 293 294 294 293 296 298 293 292 292 292 292 291 292 291 291 290 291 291 290 291 291 291 292 292 292 293 293 293 294 294 294 294 295 295 296 297 298 298 299 300 301 301 301 301 302 300 299 298 296 294 294 292 293 294 294 294 294 293 294 294 294 295 295 295 296
292 296 300 297 297 296 293 294 294 294 295 294 293 292 291 296 293 294 293 293 293 294 294 293 293 296 296 292 291 291 291 290 290 289 289 290 290 290 290 290 290 290 291 291 291 291 292 292 293 293 293 293 294 294 295 295 296 297 298 298 299 299 299 298 297 296 296 295 296 295 294 294 294 292 293 293 293 293 293 292 293 293 294 294 294 294
296 297 295 297 297 297 295 293 293 293 293 295 295 294 294 294 294 295 295 293 292 293 291 292 293 294 297 293 291 289 290 289 289 289 289 289 290 290 290 290 290 289 290 290 291 291 291 291 291 291 292 293 292 293 293 294 294 295 296 297 298 297 298 298 297 296 296 295 294 294 295 295 294 294 293 292 291 291 291 291 291 291 293 293 293 293
297 297 296 295 295 296 296 292 294 296 293 294 295 295 296 296 295 294 292 293 293 293 293 293 289 292 294 292 294 290 289 289 289 289 289 289 289 289 289 289 289 290 289 290 289 290 290 290 291 291 292 292 292 291 291 293 294 295 295 296 296 296 296 296 296 297 298 297 296 296 294 292 291 290 290 289 289 289 290 289 291 292 292 292 292 292
297 295 298 296 295 295 296 295 296 296 295 293 295 296 296 295 295 294 292 292 289 288 291 290 289 289 293 293 292 290 290 289 288 289 289 289 289 289 290 289 289 289 289 289 289 290 290 290 290 290 290 291 290 290 291 292 292 293 294 294 294 294 294 294 294 295 295 294 293 293 292 291 290 288 289 290 290 290 290 291 290 291 291 292 291 292
295 293 295 297 296 295 294 293 296 295 295 293 294 292 295 294 293 293 293 292 292 293 292 289 292 288 289 295 291 290 289 289 289 289 289 289 289 289 289 289 289 289 289 290 289 289 289 289 289 289 289 289 289 290 290 291 291 291 292 292 292 292 292 293 294 294 294 293 293 292 291 291 290 289 289 289 290 291 291 290 290 290 290 291 291 291
295 292 295 295 295 295 295 297 297 297 296 295 291 294 294 294 294 294 293 292 292 290 288 290 292 287 287 292 287 290 288 288 289 290 290 289 289 289 289 289 289 289 289 289 289 289 289 289 288 288 288 288 289 290 290 290 290 291 291 291 291 291 292 292 293 293 293 293 292 292 291 290 290 290 290 290 291 290 291 290 290 290 290 290 291 291
295 296 297 298 296 294 296 291 296 297 295 292 291 293 292 293 292 293 292 291 289 287 285 290 291 286 288 294 292 289 289 291 290 291 291 290 289 289 289 289 289 289 289 288 288 288 288 288 288 288 288 288 288 289 289 290 291 291 291 291 291 290 291 292 292 292 292 292 292 291 291 290 290 290 290 291 290 290 290 289 290 290 290 290 290 290
292 293 294 296 296 297 292 290 291 294 293 293 295 294 293 292 291 291 291 290 288 283 286 292 291 290 285 292 294 292 293 295 293 293 292 290 290 290 290 290 289 288 288 288 288 288 287 287 287 287 287 287 288 289 289 290 290 291 291 290 290 290 291 291 291 292 291 292 292 291 291 291 291 291 291 290 289 290 290 289 289 289 289 289 289 289
293 292 294 295 292 291 295 291 291 290 292 295 294 293 292 290 291 290 288 289 284 283 287 285 288 290 283 290 296 297 291 293 294 292 290 289 289 289 289 289 289 289 288 288 287 287 287 286 286 287 286 287 287 288 288 289 290 290 290 290 289 290 290 291 291 291 291 291 291 292 291 291 291 291 290 289 289 289 289 289 288 289 289 289 289 289
291 293 294 293 293 294 294 293 291 292 291 293 293 292 288 286 285 282 285 281 282 283 284 286 286 285 286 293 294 293 294 291 293 294 292 291 290 290 290 289 289 289 288 287 287 287 286 286 286 286 286 286 287 287 288 289 290 290 290 290 289 289 290 290 291 291 291 291 291 291 291 291 291 290 290 289 289 289 289 289 288 288 287 288 287 287
293 294 292 295 293 294 297 292 289 288 290 291 291 289 287 283 281 279 282 282 281 284 284 285 288 284 291 293 297 295 293 290 290 290 293 292 291 290 290 290 289 288 288 287 287 286 286 287 287 286 286 287 287 287 288 288 289 290 290 290 289 289 290 290 290 291 290 290 291 291 291 290 290 290 290 289 289 289 288 288 288 287 287 287 286 286
287 287 291 292 291 297 295 297 295 294 290 291 296 293 290 288 283 279 282 281 283 284 282 286 283 285 285 291 286 288 287 288 288 288 290 293 293 292 291 290 288 288 287 287 287 286 286 286 286 286 286 287 287 287 288 288 289 290 289 289 289 288 289 290 290 290 290 290 290 290 291 290 290 289 289 289 289 288 288 288 287 287 287 286 286 286
291 292 293 295 292 295 294 296 297 295 292 292 293 294 289 288 291 285 283 284 282 282 281 281 284 290 291 286 287 286 287 286 287 287 288 290 290 290 289 288 288 287 287 287 286 286 286 286 286 286 286 287 287 287 288 288 289 289 289 289 289 289 289 289 289 290 289 289 290 290 289 289 289 289 289 288 288 288 288 287 286 286 286 286 286 286
287 288 290 292 291 293 295 294 295 297 287 290 290 287 290 293 291 282 279 279 279 282 282 287 286 289 293 289 286 287 286 287 286 287 287 289 289 289 288 288 288 288 287 287 286 286 286 286 286 286 286 286 287 287 287 288 289 289 289 289 288 288 289 289 289 289 289 289 289 289 289 289 289 289 288 287 287 287 287 287 286 285 285 285 285 285
288 289 289 291 289 290 290 291 294 293 295 291 286 291 291 294 294 289 284 282 282 280 282 284 284 287 285 286 287 287 287 287 287 286 287 288 288 287 288 288 288 288 288 288 287 287 286 286 286 286 287 287 286 287 287 288 289 289 289 289 288 288 288 288 289 289 289 288 288 288 288 288 288 287 287 287 286 286 286 286 285 285 284 283 284 284
296 287 289 287 289 290 290 293 293 293 293 293 291 298 290 285 284 288 286 279 278 278 281 283 285 286 289 289 287 288 288 289 287 287 286 287 287 287 288 289 288 288 288 287 286 286 286 286 286 286 286 287 287 287 288 288 288 289 289 289 289 288 288 289 289 289 289 289 289 288 287 287 287 287 286 286 286 285 285 284 284 283 283 283 283 282
294 288 287 290 290 291 291 292 286 289 292 292 293 291 293 291 288 285 287 286 286 282 279 281 280 283 289 292 293 293 292 292 289 286 286 288 288 288 289 289 288 288 287 287 287 287 286 286 286 286 286 286 286 286 287 287 288 288 288 289 289 289 289 289 288 288 288 288 288 287 287 286 286 286 285 285 285 283 283 282 282 282 281 281 281 281
291 293 286 288 290 290 285 289 289 290 286 287 289 289 289 288 290 291 288 286 285 283 282 282 280 285 291 294 295 296 295 294 290 288 289 289 290 289 290 289 289 288 288 288 287 287 286 286 286 286 286 287 287 287 287 287 287 288 288 288 288 287 287 288 288 288 287 287 286 286 285 285 284 284 284 283 283 282 281 281 281 281 281 280 280 280
290 289 287 285 286 286 289 292 290 292 293 291 290 288 290 286 285 283 282 286 284 284 282 281 280 287 291 286 291 291 292 294 294 292 290 290 290 289 289 290 290 289 288 288 288 287 287 286 286 286 287 287 286 286 286 287 287 287 287 288 288 288 288 287 287 287 286 286 286 285 284 284 283 283 283 282 281 280 280 280 280 279 279 279 279 278
295 292 289 284 287 288 289 289 288 288 290 292 292 291 293 292 291 287 282 282 282 284 283 283 280 285 290 288 288 289 289 288 291 291 289 290 289 290 290 291 291 291 289 289 288 287 287 286 286 286 286 285 286 286 286 287 287 287 287 288 288 288 287 287 287 286 286 285 284 284 283 283 282 282 281 280 280 278 279 278 278 278 278 278 277 278
292 288 287 286 288 289 290 290 289 289 291 290 291 290 290 289 291 290 288 287 286 285 282 283 280 286 289 288 288 287 286 286 287 290 291 291 290 290 290 290 290 290 289 288 288 287 287 287 287 286 285 285 286 286 287 287 287 287 287 287 288 287 287 287 286 285 285 284 283 283 282 282 281 280 280 279 278 277 277 277 277 277 277 277 277 276
289 291 290 285 284 285 287 290 290 291 290 289 289 290 291 291 288 287 286 287 285 286 285 284 280 286 287 288 288 286 286 286 287 288 289 289 289 289 289 290 290 290 289 288 287 287 286 286 285 285 285 285 286 286 287 287 286 287 287 287 287 287 287 286 285 284 284 283 282 282 281 280 280 279 279 278 277 276 276 276 276 276 275 276 275 275
291 291 288 283 280 278 278 279 282 284 285 289 289 289 290 290 289 286 284 286 282 285 285 284 284 289 290 289 289 289 287 287 287 287 287 288 288 288 289 289 289 289 288 288 287 286 285 285 286 286 285 286 286 286 286 286 286 286 287 287 287 287 286 285 284 283 283 282 281 281 280 280 279 278 277 277 276 275 275 275 275 275 275 274 274 274
289 292 290 289 287 286 287 288 291 292 288 285 286 287 288 290 291 289 289 286 283 285 284 286 287 288 287 289 289 291 288 288 288 285 285 285 286 288 288 289 289 288 288 288 287 286 286 285 285 285 285 286 286 286 286 286 286 286 286 286 286 286 286 284 283 282 282 282 281 280 279 279 278 277 277 276 276 275 275 274 273 273 273 273 272 272
287 288 289 289 289 290 291 291 292 293 288 290 287 286 289 287 288 286 286 284 289 285 282 288 288 286 289 289 290 291 290 287 287 287 286 286 287 287 288 289 289 289 288 287 286 286 285 285 285 285 285 285 285 286 286 286 286 286 285 285 285 285 284 283 282 282 281 281 280 280 278 278 277 276 276 275 274 274 273 273 272 272 272 271 271 271
288 286 290 290 289 290 290 290 291 292 292 292 290 289 287 288 287 285 286 289 288 286 284 289 289 286 290 291 290 292 292 290 289 288 288 288 288 288 288 287 287 287 288 287 286 286 286 285 285 285 286 285 285 285 285 285 285 285 285 285 284 284 283 283 282 281 281 280 279 278 277 276 276 275 274 273 273 272 272 271 271 271 271 270 270 270
289 287 287 289 287 288 288 288 289 290 289 290 290 291 290 288 287 288 288 290 290 288 290 289 289 290 293 293 291 292 292 291 289 289 288 288 288 288 287 286 287 287 287 287 287 287 287 286 286 286 286 285 285 285 285 285 284 284 284 283 283 283 283 282 281 280 280 279 279 277 276 275 275 274 273 272 271 271 271 270 270 270 269 269 269 269
290 287 288 288 286 285 284 285 286 288 288 287 289 290 291 290 289 289 290 290 289 289 290 286 286 287 292 291 291 289 288 289 289 288 289 289 289 288 287 287 288 288 288 288 288 288 287 287 286 286 286 285 285 285 285 284 284 283 283 283 282 282 281 281 280 280 280 279 277 276 275 274 274 273 272 271 271 270 269 269 269 268 268 268 268 268
288 286 286 286 285 283 280 284 283 284 284 284 285 288 288 288 286 288 287 290 288 286 288 288 286 287 290 291 288 288 289 290 290 289 289 289 289 288 288 288 288 289 289 289 288 288 287 286 286 286 286 286 286 285 285 284 284 283 282 283 282 281 280 280 280 279 279 277 276 275 274 274 273 272 271 270 269 268 268 267 267 267 267 267 267 267
287 286 284 285 283 283 277 282 282 283 284 283 284 286 288 288 290 291 291 291 291 291 287 285 286 291 291 291 291 289 289 290 290 290 290 289 289 289 289 289 289 289 289 289 288 288 287 287 286 286 286 286 286 285 285 285 284 283 282 281 282 280 279 279 279 279 277 276 275 274 273 273 271 270 269 269 268 267 267 266 267 266 266 266 266 267
285 286 284 286 282 278 275 279 282 281 275 279 285 291 290 288 289 287 288 289 291 292 290 292 292 290 288 288 291 291 289 290 291 292 292 292 290 288 289 290 290 290 290 290 289 288 288 288 288 288 287 287 287 286 286 286 285 284 283 282 280 278 278 278 278 277 275 274 274 273 272 271 270 269 269 268 267 267 267 266 266 266 266 266 266 266
285 285 284 284 281 275 278 280 279 274 278 283 279 283 286 292 291 289 290 290 290 291 292 292 289 287 290 290 292 293 292 289 287 289 288 288 290 290 289 288 289 289 289 289 289 288 289 289 288 288 288 287 287 287 286 285 284 283 281 280 278 278 277 278 277 276 274 273 273 272 271 270 270 269 268 267 266 266 266 266 266 265 266 266 266 266
285 285 283 281 279 278 276 279 273 276 284 280 280 281 284 288 290 290 287 290 291 291 291 290 292 290 288 288 287 287 288 285 284 284 286 287 288 289 289 288 289 289 288 289 289 289 289 289 289 288 287 287 286 286 286 285 284 282 280 279 278 277 277 276 275 274 273 272 271 271 270 269 269 268 267 267 266 265 266 266 265 264 265 265 265 265
287 286 285 281 282 276 277 278 279 284 283 283 280 281 284 285 285 285 282 286 290 291 290 290 291 292 288 287 285 282 283 284 284 286 286 286 286 288 289 289 289 288 289 289 289 289 289 289 289 288 288 287 286 285 284 284 282 280 278 276 276 276 275 275 274 274 272 271 271 270 270 269 268 267 267 266 266 265 265 265 264 264 265 263 264 264
285 285 286 283 280 282 278 276 277 278 275 282 286 284 287 285 290 290 287 284 285 288 289 289 289 290 288 284 283 281 283 283 282 284 287 286 286 286 286 286 286 286 287 286 286 286 286 286 287 286 286 285 285 285 284 281 280 278 276 276 275 274 274 274 274 274 272 272 271 270 270 269 268 267 266 265 265 265 266 265 265 264 264 263 263 263
284 284 284 284 282 280 279 277 277 275 279 285 283 282 283 283 286 286 283 280 284 283 287 287 287 288 286 283 281 282 282 280 281 284 286 285 285 284 284 285 285 285 285 285 285 284 284 284 284 284 284 284 283 282 281 279 278 277 275 275 274 274 273 274 275 273 272 271 270 270 269 268 267 266 265 265 265 264 264 263 263 263 263 262 263 262
281 282 283 280 280 282 280 278 276 281 281 281 278 280 281 281 286 285 275 276 282 281 283 285 286 285 284 283 282 283 282 279 282 285 286 284 284 283 284 284 283 283 283 283 283 284 283 282 281 281 282 282 282 280 278 278 277 276 275 274 274 273 274 274 274 273 272 271 269 268 267 266 265 265 264 264 263 263 262 263 262 262 262 262 263 262
279 279 281 278 282 281 281 279 282 281 284 278 278 280 280 281 285 278 274 280 280 280 282 285 286 285 283 281 283 281 284 285 285 285 284 283 282 282 281 282 282 283 283 282 282 282 281 281 282 282 282 282 280 277 277 276 276 276 275 274 273 273 275 275 274 272 271 269 268 267 265 265 264 263 263 263 262 263 261 262 262 262 261 260 261 261
277 278 278 281 279 280 281 278 279 283 285 280 279 281 281 282 274 275 283 283 283 281 281 283 284 283 283 282 283 285 285 283 281 282 282 283 284 283 282 281 281 280 280 281 281 281 281 281 281 281 280 280 277 276 275 276 276 276 275 273 273 274 275 273 272 270 269 268 266 265 264 263 263 262 261 260 260 260 260 261 260 260 260 261 261 259
279 277 275 278 280 279 277 277 277 274 281 280 280 280 281 279 282 284 282 281 282 282 281 281 283 282 283 282 284 284 282 282 281 282 283 282 282 282 281 281 281 281 280 280 280 280 280 280 280 280 279 278 275 275 275 275 275 275 274 273 274 275 273 271 269 268 268 266 264 263 262 261 260 260 259 259 259 259 260 260 259 258 259 259 259 259
285 277 276 280 284 276 277 274 276 283 280 282 283 280 282 284 287 283 285 281 281 280 281 282 282 283 283 284 283 283 281 281 281 281 281 281 281 281 281 281 281 281 280 280 281 280 279 280 280 279 278 275 274 274 274 274 274 274 273 273 275 271 269 268 268 267 265 263 262 261 261 260 259 259 259 259 259 258 258 259 259 259 260 260 260 261
283 280 282 279 285 281 279 283 282 281 282 284 286 285 285 284 282 284 285 285 282 281 282 283 282 282 282 283 283 283 281 281 282 282 282 282 282 281 281 281 281 281 281 280 279 278 278 279 279 278 275 274 272 272 272 273 274 273 272 274 271 269 267 267 265 264 263 262 261 260 260 259 259 258 258 258 259 259 260 258 257 260 260 259 260 260
279 280 280 281 280 280 280 280 281 280 282 283 284 283 284 284 280 281 283 283 283 284 282 283 284 282 282 282 282 281 282 282 282 281 281 282 282 282 281 280 280 280 280 279 278 276 276 277 277 276 274 272 271 271 271 271 273 272 274 271 268 268 266 264 263 263 262 261 260 260 258 258 258 257 258 258 259 259 260 260 260 260 261 260 260 260
278 278 279 279 281 279 276 279 279 281 282 282 284 283 282 282 282 281 282 284 284 283 283 284 284 283 282 281 282 282 282 282 282 281 281 281 281 280 280 280 280 280 279 278 279 275 274 275 275 274 274 272 271 270 270 270 271 273 271 268 268 266 264 263 263 262 261 260 260 259 258 259 260 259 258 257 259 259 259 259 259 259 259 260 260 260
277 281 278 279 278 278 277 279 279 278 279 280 282 282 282 283 281 280 281 281 281 282 282 283 281 281 281 280 281 282 283 282 281 281 281 280 281 281 280 280 280 279 279 279 278 275 275 274 275 275 273 273 273 270 269 268 268 269 267 267 266 264 263 263 263 262 261 260 260 260 259 260 259 260 261 259 259 260 259 259 259 259 260 260 261 260
280 281 273 277 276 277 276 277 277 279 280 280 280 281 283 284 283 280 280 280 280 280 280 280 281 281 281 282 282 282 282 282 281 282 282 281 280 280 280 280 280 281 280 277 276 274 275 275 274 275 274 274 274 270 268 267 267 266 265 265 264 262 262 263 262 263 261 260 260 260 259 260 260 261 261 260 258 259 260 260 259 259 259 260 260 260
278 276 278 276 272 274 275 277 278 275 276 280 281 281 281 282 282 281 280 280 280 281 280 280 280 280 280 281 282 281 281 282 281 281 281 282 281 281 281 280 280 279 278 278 276 274 274 274 275 275 274 274 273 269 267 266 265 264 265 264 262 262 262 262 262 261 260 259 260 260 259 260 259 258 259 259 259 258 258 259 261 260 259 260 262 264
279 280 278 276 277 275 279 280 281 283 282 283 284 284 283 283 282 281 280 281 281 282 282 282 281 280 278 278 279 280 281 282 282 281 280 280 281 281 281 281 280 279 278 276 274 272 272 274 273 273 273 274 271 268 266 265 264 263 263 263 262 262 263 262 262 262 261 259 260 259 260 259 259 258 259 258 258 258 259 260 261 264 266 266 266 267
Wind_Speed
2 7 7 9 11 11 12 14 11 2 2 4 2 2 7 7 10 1 2 3 1 3 10 12 11 11 13 5 5 5 4 4 4 4 3 3 3 2 2 2 2 3 3 3 3 5 5 5 5 4 5 5 7 8 8 9 9 9 7 7 8 6 5 5 5 6 7 8 8 9 11 10 8 8 8 9 8 9 9 10 10 10 10 11 11 11
3 8 11 15 4 6 10 8 3 2 2 5 4 5 7 6 11 2 2 4 1 4 3 3 5 10 12 5 4 5 5 5 4 4 4 3 2 2 2 2 2 2 2 2 3 4 5 5 5 4 4 5 8 8 8 9 8 8 8 9 7 6 7 8 8 7 8 7 6 8 8 9 8 8 8 9 9 9 9 10 10 10 11 11 11 11
7 12 13 5 6 4 3 5 5 9 7 3 7 4 5 9 6 6 1 3 2 3 9 3 8 10 7 4 4 3 4 2 1 1 2 3 3 2 2 2 2 2 2 3 4 4 4 5 5 4 5 6 7 7 8 8 8 8 8 8 7 8 8 9 8 8 8 8 8 9 8 9 10 9 9 10 10 9 10 11 11 11 10 11 11 11
6 11 12 7 7 7 4 4 6 4 4 6 5 6 9 2 2 5 4 2 3 4 2 1 5 9 3 3 4 3 3 3 2 2 2 1 2 3 2 2 2 3 3 3 3 3 4 4 4 5 5 6 5 6 7 7 7 7 8 7 8 9 10 10 10 11 11 11 11 11 10 10 10 10 9 11 10 11 12 12 11 11 11 11 11 11
10 3 3 10 9 9 8 6 8 7 8 8 9 9 9 7 8 9 2 1 2 3 0 4 8 12 10 8 5 4 4 4 4 4 4 3 2 2 2 3 1 2 3 3 3 3 3 4 5 6 5 4 6 6 5 5 5 5 7 8 9 9 9 8 9 10 10 10 11 10 10 9 10 9 9 10 10 10 11 11 11 11 11 11 11 11
8 4 5 9 8 9 7 6 9 8 9 5 10 13 13 8 9 4 2 3 5 6 6 5 6 6 4 6 5 6 5 5 4 5 5 5 5 5 5 4 4 2 1 2 2 2 3 4 5 5 6 7 6 6 6 5 5 6 7 8 9 8 7 7 8 6 5 6 6 6 7 8 8 9 9 10 9 8 9 10 8 10 11 11 11 10
4 5 7 7 9 8 9 9 7 10 8 6 4 11 14 12 5 4 5 4 5 6 2 2 8 4 4 5 6 5 6 6 5 6 6 5 5 5 5 5 5 5 4 2 2 2 4 4 5 5 6 6 6 5 4 4 5 6 7 7 7 7 7 6 6 7 7 9 9 11 10 9 9 10 8 7 8 8 8 8 9 9 10 10 11 11
5 4 4 3 7 7 6 8 7 12 7 7 3 2 5 6 8 9 8 9 4 4 1 1 3 6 6 2 4 5 5 5 6 7 7 6 6 6 5 5 5 5 4 4 4 3 3 3 4 5 4 5 4 3 4 4 5 7 7 8 8 7 7 6 7 8 8 10 10 11 11 10 10 10 9 8 8 8 8 9 9 8 9 10 10 10
7 6 8 8 7 6 11 7 8 13 8 1 2 1 5 7 6 7 7 6 2 3 5 7 3 4 6 3 4 5 5 8 10 10 10 9 8 8 7 7 7 6 5 5 5 4 4 4 4 4 5 4 4 3 4 4 5 6 7 8 9 10 9 8 9 10 10 10 10 10 10 11 9 9 8 7 7 8 8 10 8 8 8 9 10 10
2 2 6 9 9 10 3 3 5 12 10 3 5 8 7 6 5 4 4 4 2 4 8 8 9 6 8 5 4 4 5 9 10 12 12 12 11 10 9 8 8 6 5 4 3 4 3 3 3 3 3 5 4 3 4 5 5 6 7 9 11 10 8 8 10 11 12 11 10 11 10 12 10 8 8 7 7 7 7 9 8 8 8 7 8 9
1 1 3 3 8 1 6 6 4 3 4 10 6 9 6 6 5 4 2 2 1 7 10 7 11 9 6 7 9 7 6 3 9 9 9 10 10 10 9 10 9 8 7 6 5 4 3 2 3 2 4 5 5 3 4 5 5 6 7 9 12 10 9 9 10 11 11 10 10 10 11 11 11 9 8 8 8 7 7 8 8 7 7 7 7 7
2 2 3 1 3 4 5 7 6 2 3 6 4 5 6 3 3 2 1 2 5 7 4 3 4 5 9 4 8 3 4 2 9 14 15 15 14 13 11 10 10 9 8 7 6 6 5 5 3 4 6 5 5 5 5 4 5 6 7 9 13 11 10 9 9 10 10 10 10 10 10 11 9 9 8 9 9 8 8 7 7 6 6 7 7 7
5 6 2 2 3 5 6 7 4 4 2 3 5 7 7 4 2 5 3 5 9 6 1 3 2 3 13 8 4 2 5 3 3 3 14 17 16 14 12 12 10 8 8 8 7 7 7 7 7 7 6 6 6 6 6 6 5 7 8 9 13 11 9 9 9 10 10 10 9 9 10 10 9 10 10 9 9 7 7 7 7 7 6 6 7 7
4 4 2 4 3 6 10 10 7 3 8 6 11 10 8 6 5 5 4 2 4 0 1 2 1 6 3 8 8 7 5 3 2 2 5 15 16 15 14 12 10 8 9 8 7 7 8 7 7 7 8 7 7 7 7 6 6 6 7 9 12 11 9 9 9 9 10 10 9 9 9 9 8 9 9 8 8 7 7 6 7 7 6 6 6 6
5 4 10 12 7 10 13 13 11 7 13 12 3 9 6 5 3 6 5 7 2 1 2 2 3 4 6 3 5 5 4 3 2 2 1 6 10 12 11 9 9 10 9 8 8 8 9 8 8 8 7 7 7 8 8 6 7 7 8 9 12 12 9 9 9 9 10 9 9 9 8 8 8 8 8 8 7 7 7 6 6 6 5 5 5 5
11 6 4 3 3 10 15 0 5 8 5 3 0 3 1 6 0 4 2 1 2 1 3 3 5 1 5 3 2 2 2 2 2 2 3 6 7 9 9 11 11 10 10 9 9 9 9 8 8 7 7 7 7 8 7 8 7 8 8 10 10 12 10 9 9 9 9 9 8 9 10 9 8 8 7 7 6 6 6 6 6 6 6 5 4 4
4 6 4 1 1 6 4 4 2 4 8 8 5 8 6 4 4 5 2 3 1 1 8 5 4 5 2 2 3 2 2 2 2 4 6 8 9 10 10 10 10 10 10 10 10 9 10 8 8 7 8 7 8 8 8 8 8 9 10 11 11 11 10 10 9 9 9 9 9 9 9 8 8 8 8 7 8 7 6 6 5 5 5 4 4 4
4 2 2 3 6 1 2 3 3 4 1 10 7 8 4 1 3 2 5 2 2 7 4 5 9 7 6 7 5 4 5 7 6 7 7 8 9 12 12 11 11 11 10 10 9 9 10 9 9 8 7 8 9 9 9 9 8 8 8 11 13 11 12 10 9 9 9 9 9 9 8 8 8 7 7 7 7 5 5 5 5 4 4 5 4 3
4 2 3 2 3 2 1 3 3 3 5 2 2 2 7 5 5 4 1 5 4 5 4 5 7 8 10 8 4 7 10 11 11 9 9 11 13 15 13 12 10 10 10 10 12 11 11 10 10 9 10 9 9 9 8 8 8 7 8 9 10 12 11 10 8 8 7 7 6 6 7 8 7 7 7 6 6 5 6 6 5 5 4 4 4 4
2 5 2 1 3 3 2 6 11 8 2 1 2 3 4 3 3 7 5 1 1 6 1 3 6 6 9 9 12 13 13 13 12 11 13 17 18 15 13 13 14 14 12 12 12 11 11 10 11 11 10 11 10 9 8 9 8 9 9 9 9 9 9 9 9 8 8 7 7 7 7 7 6 6 6 5 5 5 5 5 4 4 4 3 2 2
5 2 4 4 2 4 7 9 12 13 11 6 7 7 3 1 3 3 1 3 3 4 4 7 7 3 7 4 10 13 12 13 16 15 13 14 16 14 14 14 14 14 12 12 11 11 12 11 11 10 9 8 8 8 8 9 10 9 8 9 9 11 10 9 8 8 7 7 7 8 8 7 6 7 6 6 6 6 5 4 3 3 2 2 3 3
2 4 6 5 5 9 3 2 5 1 6 10 14 13 14 9 6 6 7 4 1 3 5 3 11 1 3 1 1 2 4 4 12 13 13 14 14 15 13 14 13 12 13 11 11 11 10 10 10 9 7 7 8 9 10 9 9 9 9 9 9 9 9 9 8 8 8 7 7 8 8 7 6 5 5 5 5 5 4 3 3 3 2 3 3 3
2 3 3 6 6 6 2 3 2 4 3 2 3 6 8 6 7 6 10 4 1 3 4 0 4 5 3 3 1 1 0 2 3 5 4 8 12 14 14 13 13 11 11 11 11 10 10 10 10 9 10 10 11 11 11 10 9 10 10 10 9 10 9 9 8 8 7 7 7 8 7 6 6 5 6 5 4 4 4 3 3 2 2 2 2 1
3 3 5 2 4 1 0 2 1 1 1 2 5 1 3 10 9 5 3 3 6 4 4 3 6 3 2 1 1 0 1 2 3 6 8 7 8 10 12 13 13 11 9 8 8 8 9 9 9 9 11 12 11 11 11 10 9 9 10 10 9 10 10 9 8 7 8 7 8 7 7 6 6 6 5 5 4 4 4 3 3 2 2 2 2 1
7 6 7 6 2 2 1 2 3 2 2 5 5 6 6 2 2 2 3 0 3 9 6 6 14 3 2 2 1 1 0 1 3 5 5 8 7 9 11 10 10 10 9 10 11 12 11 11 12 12 12 12 12 11 10 10 11 11 10 10 10 9 9 8 7 8 8 8 9 7 7 7 6 5 5 5 4 4 4 3 3 2 2 2 2 1
8 9 13 12 14 14 12 14 15 12 13 5 1 5 8 12 10 5 6 4 7 2 12 9 11 2 3 2 1 2 1 2 2 4 5 4 5 8 10 11 11 10 11 12 12 11 13 13 11 11 13 12 12 11 11 11 11 11 11 11 9 9 9 8 8 8 8 8 8 7 7 7 6 5 5 5 4 4 3 3 3 3 2 2 1 1
4 2 12 15 16 16 8 3 5 13 5 9 6 9 12 9 12 8 0 6 13 3 8 13 7 0 4 4 4 7 4 5 4 6 8 8 7 7 7 8 9 10 12 13 12 9 8 10 14 15 15 13 12 12 11 12 12 11 10 10 8 8 9 9 8 9 8 8 8 7 7 6 6 5 5 4 3 3 3 3 2 2 2 1 1 1
1 6 13 10 7 3 3 5 7 16 14 14 12 12 10 13 10 13 12 12 6 3 14 5 8 9 8 8 9 8 7 7 7 6 6 6 8 8 8 8 9 9 8 7 8 11 14 14 13 14 15 14 12 11 10 10 10 11 11 10 8 8 8 7 8 9 8 8 7 7 7 6 5 5 4 4 3 3 3 2 2 2 2 2 1 1
3 8 6 6 7 6 3 7 8 10 10 11 16 13 15 14 11 17 18 12 8 12 14 6 11 10 12 10 10 11 10 13 14 11 8 5 4 6 7 8 10 12 12 12 13 13 14 15 16 16 15 13 13 13 13 11 10 9 8 8 8 8 9 9 9 9 8 8 7 7 6 6 5 4 4 4 3 3 3 2 2 2 1 1 1 1
2 5 3 7 4 4 1 4 2 7 4 4 9 11 13 14 16 16 15 11 15 14 10 3 5 13 13 6 10 14 7 4 2 4 3 5 6 8 8 8 10 11 13 15 15 15 15 15 13 14 14 14 15 14 13 11 11 10 10 9 8 9 8 8 9 9 9 8 7 7 7 6 5 5 4 4 3 3 3 2 2 1 1 1 1 1
3 3 7 6 5 4 2 1 1 3 6 7 9 11 12 12 13 14 10 12 6 10 5 2 9 16 2 8 8 4 6 4 4 6 7 6 7 8 9 10 11 12 13 14 13 14 13 12 12 12 13 15 16 16 13 12 11 9 9 9 9 9 8 8 9 9 9 8 7 7 7 6 5 5 5 3 3 2 2 2 1 1 1 1 1 1
2 3 2 3 8 5 2 7 3 2 1 5 12 16 10 12 13 13 11 11 10 11 11 11 13 12 3 8 4 3 5 7 8 7 5 5 7 8 9 9 10 11 12 13 12 10 10 11 13 14 16 16 16 15 12 8 7 9 10 10 10 9 9 8 9 9 8 7 8 7 7 6 6 5 4 4 4 3 2 2 1 1 1 1 1 0
4 5 7 7 8 4 2 3 6 5 1 7 18 12 14 15 12 10 12 9 13 12 11 13 13 11 3 7 7 6 8 8 6 7 6 4 6 8 9 10 10 9 11 11 11 12 12 13 14 15 15 14 11 11 11 12 12 12 11 11 10 8 9 9 9 8 8 7 7 7 6 6 6 5 4 4 4 3 2 2 1 2 2 1 0 1
3 3 2 0 5 2 3 2 4 5 6 12 3 13 21 18 18 15 15 15 16 15 11 11 7 2 8 8 12 11 10 11 9 7 4 6 7 7 8 7 8 8 8 8 10 11 13 12 12 13 14 15 16 17 17 16 14 11 10 9 9 10 9 10 8 7 7 7 7 6 6 6 6 5 5 4 3 3 2 2 2 1 1 1 1 1
6 4 3 1 3 3 3 4 4 9 15 1 1 4 4 11 13 18 17 15 15 14 15 13 4 6 9 9 10 8 5 3 2 4 5 4 5 7 9 9 8 7 8 9 10 11 12 13 13 12 12 12 13 11 8 8 8 9 9 9 10 9 10 8 8 7 8 7 7 6 6 6 6 5 5 4 3 3 2 2 2 2 2 1 1 1
5 5 3 2 3 3 2 6 5 7 2 3 4 1 1 3 5 9 9 12 12 13 15 15 15 7 6 4 2 4 4 3 1 2 4 5 7 7 7 7 8 8 8 9 10 11 11 11 11 11 11 9 8 8 9 11 10 11 10 9 10 9 7 8 7 7 7 7 6 7 7 6 6 5 5 5 4 3 3 3 2 2 2 1 1 1
5 3 1 3 2 4 4 7 7 7 9 4 3 5 9 8 10 12 8 10 14 12 12 14 15 8 7 5 5 4 4 3 3 5 6 7 8 8 8 7 6 7 6 4 5 5 6 6 7 7 7 8 9 9 11 9 9 9 9 9 7 8 9 7 7 7 8 7 8 7 7 7 6 6 5 5 4 4 3 3 3 3 2 2 2 1
1 7 4 5 5 5 3 3 3 4 11 9 4 2 6 1 6 7 6 6 5 8 10 11 11 11 7 7 7 6 5 3 7 8 9 9 9 9 4 2 3 4 4 4 2 1 2 3 4 5 7 8 9 9 7 8 10 10 9 9 9 9 9 8 9 9 9 8 8 8 7 7 6 6 5 5 4 4 3 3 2 3 2 2 2 2
2 2 2 7 2 6 6 6 6 6 7 2 4 5 4 2 9 7 3 8 4 8 10 13 13 8 9 10 8 8 5 5 8 5 3 7 7 6 6 5 5 5 5 6 6 6 7 6 6 7 7 8 9 8 9 10 10 10 9 10 10 10 9 11 10 10 10 9 8 7 7 6 6 6 5 5 5 4 4 3 3 2 2 2 2 2
3 3 3 3 6 7 7 7 9 4 5 1 2 2 2 2 8 4 3 4 4 7 3 5 8 5 6 9 10 8 8 7 7 3 5 6 7 8 7 6 5 5 5 6 4 5 7 7 8 7 8 10 10 9 10 10 11 12 11 10 9 10 10 12 10 8 7 8 8 7 6 6 6 5 5 5 4 4 3 2 2 3 2 2 2 2
4 2 4 11 11 10 12 9 3 4 2 1 5 2 5 3 2 7 11 3 2 6 6 6 8 7 10 10 9 7 7 2 1 3 6 7 6 4 3 1 2 2 4 5 6 7 7 7 8 8 9 8 9 10 10 9 9 10 9 9 10 11 13 8 8 8 8 8 7 7 7 6 6 6 5 4 4 4 3 3 2 2 2 2 2 1
1 2 1 2 7 10 11 7 9 5 1 6 1 5 5 6 5 9 1 2 9 8 5 8 7 8 9 11 9 7 4 4 2 3 6 6 6 5 5 4 3 3 3 3 5 6 5 5 4 3 4 6 9 10 9 9 12 9 9 9 11 13 7 8 9 8 7 8 8 7 7 6 6 5 5 4 4 4 3 3 2 2 2 2 1 2
9 7 7 8 3 1 1 6 3 8 2 8 11 4 5 3 2 3 4 2 2 2 9 6 7 7 9 9 9 6 5 4 5 6 6 5 5 5 6 6 6 6 6 5 5 6 6 5 6 6 6 5 8 8 8 12 13 10 9 11 16 8 7 8 8 8 8 8 7 7 7 6 7 5 4 5 5 4 3 3 3 3 3 2 2 3
4 5 3 5 6 5 9 8 6 0 7 12 15 9 8 5 2 6 3 4 2 4 6 6 6 8 9 8 9 6 5 6 3 3 4 3 3 2 2 3 2 3 3 3 3 6 6 6 4 5 5 5 6 6 8 13 12 11 12 17 7 7 6 7 7 8 8 7 7 7 6 6 5 4 5 5 5 4 3 3 2 2 2 2 2 2
7 8 2 5 6 8 4 2 1 1 11 12 5 6 3 5 2 8 6 6 6 4 5 4 7 7 9 8 7 8 7 7 8 8 8 7 6 6 6 7 7 7 6 6 6 5 5 7 6 5 5 5 7 6 7 8 13 12 16 9 9 8 10 10 11 11 11 8 8 7 6 6 5 5 5 4 5 4 4 3 3 2 2 2 2 2
6 2 1 2 2 2 2 2 2 2 5 8 3 2 4 4 1 1 5 5 4 4 9 7 7 8 9 7 5 4 6 8 7 5 5 4 5 5 4 3 4 3 3 3 2 7 6 4 3 6 8 5 7 7 8 8 8 14 12 6 8 7 9 14 14 12 11 8 7 7 7 7 5 5 5 5 4 3 2 3 3 2 2 2 2 2
3 3 1 2 2 3 4 6 5 5 4 6 5 2 2 2 2 2 2 2 4 5 6 4 5 8 8 8 9 8 8 7 7 6 6 5 5 6 7 7 7 8 8 9 8 8 6 8 8 9 10 11 8 8 8 12 10 6 3 11 7 8 11 15 9 9 7 7 6 6 6 7 6 5 5 4 3 3 3 3 3 2 3 3 3 3
3 6 1 4 1 3 1 4 2 4 3 3 2 3 6 6 3 2 0 1 1 3 4 5 4 3 5 5 10 9 8 6 7 7 6 6 7 6 7 7 6 5 6 6 6 9 7 9 12 11 11 12 10 9 8 11 12 8 7 7 9 12 13 10 10 9 8 8 7 6 6 5 5 5 4 4 3 3 3 3 3 3 4 3 3 2
3 8 4 3 3 0 4 3 1 4 2 4 5 7 7 3 4 4 3 2 2 5 5 4 5 4 8 9 9 9 8 7 9 9 8 6 6 5 6 6 6 9 7 7 8 10 12 12 12 12 12 12 7 10 12 13 9 8 9 7 11 13 11 8 8 5 6 6 5 5 5 4 4 4 3 3 3 2 3 3 4 4 4 5 4 4
4 4 3 3 2 3 5 7 8 3 2 6 9 10 10 7 6 5 4 4 5 6 5 6 7 5 5 3 5 6 8 8 9 7 9 7 8 8 7 7 7 8 6 7 5 10 10 9 12 12 12 11 6 10 14 13 11 9 7 8 9 9 10 10 7 7 6 6 6 5 5 4 4 3 2 2 2 2 3 7 10 7 5 4 8 13
9 8 7 5 6 2 3 6 9 6 4 2 6 9 8 5 8 7 8 9 9 9 8 8 7 5 6 8 6 8 10 9 10 7 8 7 8 8 8 11 9 9 10 6 7 8 11 12 11 10 10 9 7 9 12 10 10 8 7 9 10 12 13 14 7 6 5 6 5 6 5 4 4 4 3 2 2 1 2 2 4 11 14 13 11 12
Wind_Direction
337 194 195 208 218 199 201 207 228 45 97 82 158 221 248 261 269 220 145 103 320 277 247 254 259 260 268 153 142 141 142 143 156 166 169 168 158 154 129 125 92 73 50 16 21 29 24 24 22 22 29 46 59 45 41 45 39 35 32 43 42 16 32 64 76 76 82 86 91 80 77 81 74 69 65 61 55 53 48 41 41 40 41 36 31 28
226 220 226 226 214 189 209 204 148 143 129 233 245 234 250 214 265 283 108 106 165 236 271 181 247 255 256 119 125 157 176 179 176 178 178 161 158 135 135 114 92 73 89 56 62 43 38 31 25 35 41 39 61 46 49 50 44 46 44 48 42 34 44 48 53 66 63 57 66 90 85 90 80 74 67 65 55 53 50 47 44 43 43 43 41 35
203 218 235 202 84 89 79 182 201 222 217 193 244 238 257 254 261 270 174 148 190 182 261 165 251 259 244 115 125 156 179 134 181 240 159 164 159 148 127 110 106 120 103 85 69 48 51 38 35 44 46 50 57 60 62 60 65 59 59 56 55 49 48 42 42 56 66 67 67 79 88 88 88 74 74 74 68 61 58 51 46 45 44 46 46 43
227 237 236 111 134 133 104 166 187 197 236 228 209 227 240 249 190 263 116 117 154 235 339 75 275 267 214 131 132 131 171 135 122 144 130 175 159 145 132 125 142 130 123 98 66 63 47 48 48 46 45 43 53 63 65 66 73 73 71 71 73 67 64 64 59 68 69 72 76 77 85 85 86 92 84 77 68 63 58 52 46 44 43 44 47 43
213 64 18 149 166 181 183 165 176 198 228 213 225 235 249 216 223 244 312 111 104 229 281 284 273 270 224 205 184 137 139 151 160 158 165 150 137 127 134 148 119 132 119 111 110 80 65 62 46 45 40 43 53 54 54 57 76 86 89 89 87 84 83 86 86 85 89 90 88 91 94 92 90 83 79 76 66 61 60 58 47 44 44 46 47 46
229 100 123 138 167 190 180 184 200 204 240 214 214 226 239 240 242 190 85 239 257 254 180 211 276 249 150 216 213 141 176 191 171 197 182 167 168 173 170 152 144 131 64 124 104 83 66 68 70 58 49 47 47 45 29 31 57 83 91 93 96 95 92 92 86 89 108 105 104 103 91 81 72 68 57 58 66 62 59 61 60 53 49 50 50 48
247 117 167 152 166 184 203 217 195 195 238 239 240 206 230 240 239 179 185 163 245 254 99 300 232 266 146 203 186 170 186 186 166 212 191 183 179 181 169 163 159 155 152 134 125 118 108 90 90 71 57 53 58 46 34 42 55 68 75 77 80 86 88 85 89 92 98 87 79 76 76 77 77 85 71 70 70 75 72 70 64 59 50 48 51 48
151 154 162 163 166 172 188 224 185 187 216 239 78 180 192 200 203 207 195 209 259 39 80 213 263 270 276 177 111 147 192 199 204 206 200 194 183 182 173 170 166 165 165 153 138 124 100 96 86 87 72 66 67 67 72 73 72 77 82 86 86 84 83 81 88 84 87 94 90 90 86 83 83 83 89 80 74 72 75 72 65 63 57 50 48 48
174 162 186 180 196 186 218 225 131 184 199 308 46 189 153 190 196 171 195 211 254 306 247 193 171 263 245 208 119 164 204 206 214 202 198 188 183 180 179 178 176 172 163 157 153 143 131 114 94 90 85 74 75 61 71 78 82 86 87 89 90 87 83 81 83 87 82 87 93 97 100 97 90 92 91 87 81 76 73 73 66 63 60 55 49 46
334 231 205 192 178 213 151 29 165 169 215 109 120 91 87 84 81 156 198 195 180 221 238 207 178 240 261 189 183 159 252 239 195 193 190 183 180 180 181 179 178 168 162 167 154 143 128 114 98 78 98 97 80 73 81 85 88 87 89 90 88 84 83 85 84 86 86 88 95 96 99 102 103 101 96 89 84 79 73 70 66 61 58 52 50 46
0 221 329 198 212 146 96 54 14 15 45 129 160 109 97 84 97 99 83 170 180 238 236 209 178 216 277 178 206 191 220 219 160 177 166 170 175 182 183 180 178 173 167 168 164 160 148 123 125 130 118 105 101 84 90 86 89 87 90 94 88 85 87 84 86 89 89 88 90 94 97 100 102 99 98 95 83 79 73 71 66 63 58 53 50 46
147 86 169 223 53 105 102 90 40 59 147 163 157 144 125 90 137 153 130 213 236 253 124 36 213 206 224 217 219 176 72 167 169 174 171 173 181 181 180 182 180 174 170 165 165 165 162 160 150 145 130 127 115 109 102 98 96 96 95 101 97 92 91 91 93 92 90 92 92 94 96 94 92 94 90 86 83 74 72 69 70 66 63 56 52 46
234 204 125 86 273 151 156 112 87 108 205 207 155 161 185 178 143 209 166 218 212 246 71 41 128 202 238 247 64 113 170 172 200 168 175 172 177 177 179 180 177 173 170 171 172 168 174 171 165 161 149 141 145 133 128 121 118 112 111 111 106 101 100 98 99 96 97 95 93 94 92 89 87 85 85 83 80 73 70 66 64 61 60 54 50 41
235 107 177 179 123 240 182 173 146 172 193 194 184 178 188 189 194 243 188 323 308 155 0 44 154 258 13 259 251 196 145 94 101 29 169 172 173 174 175 176 173 174 177 176 174 177 180 175 172 167 161 158 150 146 140 140 134 127 120 117 108 108 105 105 101 99 97 91 93 92 92 91 90 85 82 80 78 73 70 67 65 62 60 59 54 45
227 219 211 155 225 156 201 213 181 158 164 198 197 188 210 196 172 209 184 225 246 79 104 287 171 229 170 201 21 30 47 52 51 47 11 154 165 166 166 165 169 176 182 179 181 185 182 179 175 171 168 161 157 152 149 148 143 129 120 119 115 114 113 110 108 106 102 99 95 93 92 92 91 88 86 82 80 79 79 74 73 68 63 65 56 49
223 267 51 156 356 147 190 190 81 101 125 131 244 10 315 227 261 262 24 320 87 161 173 177 235 252 228 110 70 44 56 42 86 112 166 167 154 153 163 178 183 183 182 182 186 187 187 182 178 175 171 165 159 158 156 154 149 136 128 125 120 121 122 119 116 111 109 105 102 98 95 91 90 92 92 90 84 81 77 76 74 70 63 60 60 54
71 233 84 153 100 189 169 128 160 179 199 173 148 206 196 11 107 109 118 80 45 312 253 145 247 241 314 173 120 142 118 160 147 170 183 179 173 175 187 187 188 186 182 183 188 188 186 184 187 182 175 168 165 165 165 161 153 144 135 132 129 127 126 125 121 118 116 112 107 100 96 95 91 91 91 93 91 85 79 77 73 71 66 61 55 50
173 163 118 143 188 347 18 308 69 34 45 108 214 200 81 261 349 197 247 109 218 249 263 148 217 218 134 242 113 163 192 192 191 187 189 185 178 190 197 192 190 185 183 183 188 190 190 189 186 183 181 176 173 169 164 159 152 145 139 140 136 137 134 133 129 125 122 117 109 106 102 96 96 96 94 93 91 85 84 79 74 70 66 52 46 48
187 225 129 351 45 70 3 207 118 39 340 240 173 116 168 193 207 174 224 236 192 237 257 197 228 247 199 208 131 206 196 199 190 178 180 190 195 202 197 192 185 178 179 185 192 192 193 190 187 186 184 178 175 171 161 155 153 149 143 143 141 139 139 137 133 127 122 119 114 112 109 105 99 95 93 91 87 84 80 74 70 68 64 59 46 41
263 220 123 36 141 126 192 193 196 174 198 54 136 157 353 317 228 159 204 331 159 258 158 237 126 237 184 221 183 198 198 191 169 172 199 201 198 194 191 187 185 187 190 190 192 192 190 189 190 187 183 179 175 170 165 160 159 157 150 147 141 135 137 136 134 133 125 120 118 115 108 101 100 96 94 90 89 87 82 77 76 73 68 60 50 49
183 343 227 109 308 147 183 202 210 173 175 165 184 185 172 217 352 334 13 201 215 242 231 280 260 216 181 197 183 196 192 177 171 190 197 200 201 195 190 186 186 188 189 191 188 187 188 187 189 187 184 174 168 172 169 169 167 160 157 152 149 148 149 146 142 135 129 127 124 121 115 113 107 102 98 94 91 92 90 89 87 79 83 79 59 42
159 186 204 124 170 209 216 37 348 253 200 187 179 188 182 155 169 186 225 84 207 209 241 192 259 130 163 88 335 20 6 175 190 188 188 194 190 190 195 193 185 184 193 187 185 185 180 182 184 180 171 169 175 179 179 174 168 164 167 161 160 158 157 151 147 141 135 130 128 125 123 116 110 107 104 104 103 102 106 107 93 83 76 75 54 48
163 104 115 184 200 199 354 10 298 328 340 326 271 209 188 198 175 188 229 180 62 247 46 299 330 259 97 148 143 168 311 289 269 209 214 191 192 195 198 194 195 196 184 184 182 181 183 184 182 176 175 183 186 185 181 175 173 171 170 167 169 166 162 156 147 139 136 132 131 129 124 122 120 119 122 122 122 117 112 105 100 96 104 101 104 93
110 151 164 93 52 349 274 218 230 305 313 243 250 341 183 205 199 224 247 129 208 152 185 204 245 268 122 182 160 79 338 338 289 211 198 200 196 195 192 188 191 184 173 168 171 177 183 180 172 174 184 189 191 187 182 176 176 174 174 175 173 172 159 150 144 142 138 136 134 133 132 131 131 136 140 133 123 127 130 137 132 127 116 113 97 84
168 207 174 149 169 160 183 181 209 166 232 231 206 180 210 114 89 84 100 76 255 209 180 193 249 191 164 101 128 99 105 307 240 222 203 197 195 189 189 192 191 184 171 175 184 189 183 181 183 187 188 191 192 189 180 178 182 179 178 178 177 168 159 150 149 147 146 143 140 142 141 140 143 145 143 136 136 145 143 142 132 118 103 94 94 58
199 165 171 184 191 194 197 206 205 193 202 177 250 162 195 180 155 137 217 186 235 172 162 213 241 85 90 80 289 256 256 276 237 219 218 231 205 187 192 191 187 177 184 186 188 183 188 188 183 185 191 194 194 186 180 183 185 183 182 181 179 164 158 156 155 154 148 149 147 149 148 146 148 149 146 142 144 146 139 126 120 119 110 92 104 66
198 219 203 200 191 200 200 91 64 89 97 193 191 176 192 198 183 191 232 202 215 136 204 218 217 188 205 194 229 235 201 229 213 195 211 207 210 206 192 187 184 187 191 192 187 182 175 183 193 193 194 195 189 184 184 185 185 185 182 180 176 167 162 160 158 158 153 154 152 150 152 152 153 150 149 148 143 140 137 127 124 134 121 117 122 100
91 207 220 234 249 274 80 142 164 161 179 201 182 199 180 178 180 190 198 219 118 116 251 214 125 222 209 169 214 216 190 211 225 199 190 214 208 192 185 182 188 191 192 170 171 183 193 197 196 195 195 192 189 185 186 187 186 185 183 179 175 171 164 161 160 158 157 154 153 152 150 149 148 146 140 135 137 144 139 136 143 137 137 136 137 116
156 212 209 192 234 81 39 121 152 172 193 191 198 182 184 179 172 196 215 209 152 211 237 221 168 206 234 200 199 213 193 201 201 189 199 185 147 154 167 180 189 199 198 192 198 198 198 199 199 193 188 189 186 187 188 185 184 183 183 177 173 172 174 164 160 160 158 158 155 151 147 144 142 135 133 138 143 153 155 145 137 140 140 134 125 100
112 233 136 201 201 122 148 115 110 152 148 183 204 193 185 174 191 199 212 206 211 233 247 261 189 231 233 188 183 215 211 169 156 135 133 172 189 175 176 191 203 204 199 200 200 200 202 202 194 190 185 183 189 190 189 186 185 184 181 177 170 173 169 163 165 159 160 160 153 145 147 146 142 142 141 148 156 161 156 144 137 147 141 132 106 105
163 216 136 155 180 209 218 69 75 176 191 221 230 222 205 182 192 205 209 215 201 251 230 134 256 254 177 142 188 83 111 118 123 182 188 176 159 168 184 199 207 210 210 210 208 205 201 196 190 184 184 190 194 194 190 189 186 172 176 173 170 171 165 169 163 162 161 155 147 145 147 148 145 143 149 148 163 162 151 134 132 136 153 147 120 123
225 215 64 158 200 204 219 171 149 77 57 252 255 236 181 161 194 206 211 212 177 216 231 235 245 252 155 147 97 134 143 174 189 181 176 181 171 171 186 202 209 212 211 211 209 199 192 192 191 191 194 196 197 193 190 182 172 174 185 173 171 166 161 170 166 161 157 145 147 152 156 150 144 146 147 160 176 158 132 121 133 161 180 180 141 148
189 156 165 175 196 194 342 197 140 129 145 279 247 203 166 195 211 208 220 210 206 205 219 225 230 238 201 150 165 192 192 196 188 179 190 170 172 182 195 205 209 210 210 208 201 197 196 195 196 195 197 198 195 187 185 186 185 189 181 169 170 148 164 170 165 155 147 148 154 159 154 146 146 148 163 175 160 140 137 129 159 189 196 196 188 199
136 157 127 187 185 113 326 128 133 144 198 223 7 145 170 193 196 200 218 209 212 201 220 223 248 140 121 162 185 194 195 205 195 193 168 170 173 193 206 209 210 208 207 203 200 199 198 196 196 196 198 196 195 194 195 189 184 180 165 158 150 159 169 164 162 153 148 151 159 158 153 148 145 161 170 161 149 144 153 151 191 197 223 207 220 184
161 169 152 111 131 122 150 146 163 213 228 36 143 12 215 193 180 204 219 211 213 217 229 240 218 172 187 172 192 193 179 90 56 192 198 191 181 184 191 202 206 200 202 199 200 202 201 200 200 201 199 198 199 196 163 162 165 154 151 158 160 168 161 165 153 152 154 158 160 159 157 150 158 166 159 154 150 161 167 176 190 206 214 220 216 215
175 166 133 85 113 76 124 185 204 226 36 90 45 33 54 140 220 220 246 241 222 212 215 229 232 200 160 173 115 71 115 109 62 281 227 195 191 186 188 198 200 194 200 203 199 203 199 198 199 195 198 193 186 178 177 182 168 159 165 159 163 160 160 155 154 155 159 162 167 168 163 157 163 161 159 157 161 172 179 181 189 208 215 223 225 212
178 107 172 160 181 166 192 197 238 1 316 195 115 192 170 166 169 174 215 234 218 206 203 217 231 214 151 175 122 102 96 126 214 235 214 208 203 215 201 192 177 191 198 192 194 202 194 194 195 194 176 177 186 178 185 166 150 150 142 156 160 153 160 161 166 171 169 169 170 169 164 166 161 159 158 160 170 175 187 181 197 208 201 214 233 221
260 201 203 186 208 169 139 203 274 252 247 251 179 155 187 338 160 172 203 260 106 181 176 192 219 222 150 128 140 136 144 179 249 238 192 197 201 204 221 208 129 148 167 165 157 147 185 187 169 168 174 178 183 180 163 144 152 147 151 159 158 162 170 174 184 176 170 174 168 165 164 165 160 156 160 165 175 178 185 177 204 198 205 224 227 237
28 55 358 208 200 154 212 218 224 228 239 43 141 162 124 138 120 118 121 257 160 159 179 188 212 208 151 152 147 153 163 217 239 224 143 174 179 180 191 216 198 179 164 169 171 169 170 171 169 164 164 168 173 169 148 148 147 149 162 165 168 173 172 190 186 175 175 169 160 161 157 157 156 157 160 172 175 174 182 190 197 202 208 224 229 242
165 196 173 223 215 203 204 216 226 213 264 169 192 164 182 190 154 116 234 271 153 199 159 166 201 176 149 151 154 172 180 213 234 199 162 168 162 171 186 192 190 177 170 159 164 163 151 138 134 150 167 177 177 155 151 150 159 170 169 172 167 176 192 195 183 162 150 148 152 150 151 153 151 157 163 171 167 170 183 180 189 202 218 235 246 244
181 204 207 213 218 218 218 233 271 286 252 164 173 172 171 242 187 175 229 134 179 182 184 182 202 153 148 156 173 178 219 213 34 82 110 119 120 163 191 97 93 104 145 156 157 145 151 167 173 174 179 170 152 149 154 154 156 173 179 165 175 198 202 173 139 147 151 148 147 150 152 153 159 160 167 164 161 172 172 191 195 189 208 234 232 242
11 109 322 231 232 224 220 227 234 270 159 141 103 171 206 138 193 207 205 88 155 183 190 195 173 164 160 167 184 206 158 135 113 101 131 158 163 147 143 143 116 91 70 104 142 161 157 169 177 150 142 156 146 154 159 160 171 181 167 174 200 206 163 134 150 148 147 150 152 151 150 152 155 158 155 154 158 167 183 179 181 206 213 233 234 247
175 154 197 200 204 53 90 243 212 232 138 121 123 72 274 183 268 88 112 53 45 166 154 187 179 177 175 187 199 160 124 161 161 165 159 157 146 151 154 165 178 174 166 152 166 192 166 166 187 196 174 148 154 159 165 169 181 186 176 192 210 167 133 148 147 150 149 147 146 151 152 154 154 156 152 161 173 174 179 173 180 201 210 221 238 237
179 137 208 224 189 189 198 210 212 14 132 173 150 176 197 196 121 153 129 149 151 160 174 160 193 190 194 187 181 179 159 166 190 179 162 157 143 110 139 173 151 145 159 186 170 171 173 190 183 171 159 154 165 171 168 178 183 187 187 212 173 126 137 142 152 142 140 146 151 149 154 151 152 153 161 169 165 170 174 183 178 203 215 211 238 255
211 191 195 203 185 187 211 224 55 266 155 188 177 17 112 143 139 167 124 141 146 205 184 183 187 188 200 200 189 172 167 197 193 189 176 185 180 185 186 195 187 189 185 184 191 170 179 196 187 173 164 174 176 186 187 191 190 186 204 198 127 157 157 155 154 151 151 156 156 158 152 151 162 162 167 167 170 176 175 171 179 211 203 203 237 247
16 114 346 91 260 46 353 129 37 28 206 188 111 54 77 136 44 236 154 130 216 150 170 182 181 174 195 201 167 195 200 195 189 181 198 182 183 196 180 159 199 192 170 154 167 181 192 181 157 175 186 190 186 191 192 203 198 197 212 123 154 149 152 138 149 155 161 154 157 158 148 153 159 168 167 172 177 182 182 165 182 206 213 216 229 225
214 122 150 199 283 167 237 120 163 184 200 222 195 103 37 335 199 194 235 118 148 152 180 238 173 182 179 170 193 197 205 198 194 188 188 178 188 191 187 198 195 186 178 192 195 154 168 169 181 199 196 205 198 194 196 197 215 217 113 160 148 152 147 150 148 146 148 159 156 148 161 168 173 167 164 176 173 177 174 181 186 201 224 223 226 232
260 167 108 223 205 205 322 144 163 14 301 307 262 225 239 213 184 194 175 50 63 176 195 168 114 115 137 182 207 205 212 188 187 195 187 196 197 190 193 201 197 185 211 196 157 169 173 186 201 208 199 214 203 191 185 195 201 181 149 144 152 139 147 159 171 166 165 161 159 165 174 182 157 162 160 166 173 180 182 188 197 209 216 208 210 223
121 123 208 187 164 180 31 316 331 339 292 218 216 237 247 211 164 172 177 143 144 153 182 189 217 179 178 198 191 199 208 203 201 201 188 189 197 199 202 198 199 204 185 176 183 180 190 197 206 213 208 221 189 169 181 196 184 165 166 161 145 150 157 165 159 144 141 149 153 161 166 173 161 175 160 154 175 214 213 200 196 209 230 229 218 223
127 210 152 118 136 213 193 178 164 137 224 197 210 216 221 198 164 153 163 184 201 198 186 187 213 213 209 219 193 198 207 210 206 204 205 201 196 200 199 204 203 204 205 201 168 188 206 211 211 214 215 224 173 176 183 185 174 167 169 150 152 158 165 157 155 155 165 165 169 154 161 170 167 157 159 165 183 200 243 229 226 220 214 238 232 234
195 190 147 186 204 209 160 156 189 198 221 211 186 206 217 151 163 179 194 202 209 210 190 190 199 187 212 229 214 198 211 217 214 194 210 215 216 212 206 197 198 206 210 174 177 200 210 215 214 219 226 216 176 185 183 182 171 166 170 161 165 173 173 151 158 167 157 163 177 168 166 161 157 165 164 163 173 221 260 295 230 231 240 247 256 264